Temperature
14 14 14 14 14 14 14 14 14 14 14 12 12 12 12 13 13 12 13 13 13 13 13 13 14 14 14 14 14 14 14 14 14 14 14 14 14 14
14 14 14 14 14 14 14 14 14 14 13 12 12 12 12 12 13 12 12 13 13 13 13 13 13 13 13 13 13 13 13 13 13 13 13 14 14 14
14 14 14 14 14 14 14 14 13 13 13 13 12 12 12 12 12 12 12 12 12 13 13 13 13 13 13 13 13 13 13 13 13 13 13 13 13 13
14 14 14 14 14 14 14 13 13 13 13 13 12 12 12 12 12 12 12 12 12 12 12 12 12 12 13 12 12 12 12 12 12 12 12 12 12 12
14 13 13 13 13 13 13 13 13 13 12 12 12 12 12 12 12 12 12 12 12 12 12 12 12 12 12 12 12 12 12 12 12 12 12 12 12 12
13 13 13 13 13 13 13 13 13 12 12 12 12 12 11 12 11 11 11 11 11 11 11 11 11 11 11 12 11 11 11 11 11 11 11 11 11 12
13 13 13 13 13 13 13 12 12 12 12 12 11 11 11 11 11 11 11 11 11 11 11 11 11 11 11 11 11 11 11 11 11 11 11 11 11 11
13 13 13 13 13 13 13 13 12 12 11 11 11 11 11 11 11 11 11 10 10 10 10 10 10 10 10 10 11 11 11 10 10 10 10 10 10 10
13 13 13 13 13 12 12 12 12 12 12 11 11 11 11 11 10 10 10 10 10 10 10 10 10 10 10 10 10 10 10 10 10 10 10 10 10 10
13 13 12 12 12 12 12 12 12 12 11 11 11 11 11 10 10 10 10 10 10 10 10 9 10 10 10 10 10 10 10 10 10 10 10 9 9 9
13 13 12 12 12 12 12 11 11 11 11 11 11 11 11 11 10 10 10 9 9 9 9 9 9 9 9 9 9 9 9 9 9 9 9 9 9 9
13 13 12 12 12 12 11 11 11 11 11 11 11 11 10 10 10 10 9 9 9 9 9 8 8 8 8 9 9 8 8 8 8 8 8 8 8 8
12 12 12 12 12 12 11 11 11 11 10 10 10 10 10 10 10 10 9 9 8 8 8 8 8 8 7 8 8 8 8 7 8 7 7 7 7 7
12 12 12 12 12 11 11 11 11 10 10 10 10 9 9 9 9 9 9 9 8 8 8 8 7 7 7 7 7 7 7 7 7 7 6 7 7 7
12 12 12 11 11 11 11 11 10 10 10 9 9 9 9 9 9 9 9 8 8 8 8 7 7 7 6 6 6 7 6 6 6 6 6 6 6 6
12 12 11 11 11 10 10 10 10 10 9 9 9 9 8 8 8 8 8 8 7 7 7 7 7 7 6 6 6 6 6 6 5 5 5 5 5 5
12 11 11 11 11 10 10 10 10 9 9 9 8 8 8 8 8 8 7 7 7 7 7 7 6 6 6 6 6 6 5 5 5 5 5 5 5 5
11 11 11 11 10 10 10 10 9 9 9 8 8 8 8 7 7 7 7 7 7 7 6 6 6 6 5 6 6 5 5 5 5 4 4 4 4 4
11 10 10 10 10 10 10 9 9 9 8 8 8 8 7 7 7 7 6 6 6 6 6 6 5 5 5 5 5 5 5 4 4 4 3 3 3 4
10 10 10 10 10 9 9 9 9 8 8 8 7 7 7 7 6 6 6 6 6 6 5 5 5 5 4 4 4 5 4 4 4 3 3 3 3 3
10 10 10 10 9 9 9 9 8 8 7 7 7 7 6 6 6 6 6 5 5 5 5 5 5 5 4 4 3 4 4 4 3 3 2 2 2 2
10 9 9 9 9 9 8 8 8 7 7 7 7 6 6 6 6 5 5 5 5 5 5 5 4 4 4 3 3 3 3 3 3 3 2 2 1 1
9 9 9 8 8 8 8 8 7 7 7 6 6 6 6 5 5 5 5 5 4 4 4 4 4 3 3 3 3 2 2 2 2 2 2 2 1 1
Wind_Speed
4 4 3 3 3 2 1 1 1 1 2 3 3 5 6 7 8 8 10 14 14 14 14 14 14 14 14 15 16 16 16 15 13 12 12 11 11 11
3 4 4 3 3 2 1 1 2 1 1 2 2 3 4 5 7 7 8 10 13 14 13 13 13 13 13 13 14 14 14 14 13 12 11 10 10 10
4 4 4 4 3 2 2 2 2 2 2 2 2 2 3 4 5 5 6 6 10 12 12 12 12 12 12 12 12 12 13 13 13 12 11 11 11 10
3 3 3 3 3 2 2 2 2 1 1 2 2 2 2 3 4 4 4 5 6 9 10 11 11 11 11 11 11 11 11 12 12 12 12 11 10 10
2 2 2 2 2 2 2 2 2 2 1 1 1 1 1 2 2 3 3 3 4 4 6 7 9 9 9 9 9 10 10 11 11 11 11 11 10 9
2 2 1 2 1 1 1 2 1 1 1 1 1 1 0 1 1 2 2 2 2 3 4 3 4 4 5 6 7 8 9 9 10 10 10 11 10 10
2 2 2 3 5 3 1 1 1 1 1 1 0 0 0 1 2 2 2 2 2 2 3 3 3 3 4 4 4 6 7 7 8 9 10 10 10 10
2 2 3 3 3 2 2 2 2 1 1 1 1 1 1 1 2 3 3 3 3 2 4 3 3 3 3 4 5 5 6 7 7 8 9 10 11 11
2 2 2 2 2 1 3 4 1 1 3 3 2 1 2 2 3 3 3 4 4 4 4 4 3 3 3 3 2 4 5 7 8 9 10 11 12 12
3 3 3 3 2 1 1 2 1 1 2 3 2 2 3 3 3 4 5 5 5 3 4 5 5 5 5 5 2 4 6 8 9 10 10 11 12 13
3 3 3 3 3 2 3 3 2 2 1 2 3 3 3 4 5 4 4 5 5 4 3 5 5 6 6 6 4 5 8 9 9 10 11 12 13 15
4 4 3 3 3 4 5 4 4 4 3 3 4 6 6 6 7 7 5 6 6 5 3 4 6 6 6 5 6 7 8 8 10 11 12 12 12 13
5 5 4 5 5 5 6 6 4 4 5 5 5 5 5 5 5 6 6 6 7 6 5 5 6 7 7 7 7 7 8 9 10 10 10 10 12 12
6 5 4 6 7 7 7 4 4 5 5 5 5 5 5 5 5 6 7 8 9 9 9 8 7 8 9 10 9 8 8 10 10 10 11 12 12 13
6 4 3 6 7 7 8 7 7 6 6 6 7 6 6 6 6 6 8 9 10 11 11 11 10 9 9 11 11 11 11 10 9 10 11 11 11 12
7 6 7 7 8 7 6 7 7 7 7 8 7 7 7 6 7 7 7 7 8 9 10 12 12 11 11 12 12 12 11 10 10 11 11 12 13 13
7 6 6 6 7 7 7 7 7 8 8 8 8 8 8 8 8 7 8 8 9 10 9 8 10 12 12 13 13 12 12 12 11 11 12 12 12 13
6 7 8 8 8 8 8 8 8 9 9 9 9 9 9 9 9 8 8 9 10 10 10 9 9 9 10 11 12 13 12 12 12 12 12 13 14 14
8 9 9 9 9 9 9 9 9 9 9 9 9 10 9 9 9 9 9 10 11 11 11 10 10 10 12 13 10 10 11 12 12 12 12 13 15 15
9 10 10 10 9 9 9 9 9 9 9 9 10 10 10 10 10 11 11 12 12 12 11 10 10 10 12 14 14 13 12 13 12 13 14 14 14 15
9 10 10 10 10 10 9 9 10 10 10 10 10 10 10 10 11 11 12 13 12 12 12 12 10 10 11 11 12 13 13 13 14 13 15 15 15 15
9 9 9 10 9 9 9 9 10 10 10 10 10 10 10 11 12 13 12 12 12 12 13 12 10 10 10 12 14 16 15 14 14 17 18 18 14 15
8 8 9 9 9 9 9 10 11 10 10 10 10 10 11 11 12 12 12 13 12 12 12 11 10 10 11 12 13 14 17 17 14 13 14 16 20 24
Wind_Direction
73 76 72 75 75 62 64 358 350 53 63 58 43 35 34 40 22 39 46 44 40 43 46 47 46 46 48 47 46 45 45 46 47 47 46 43 45 45
70 76 72 75 72 65 53 20 359 27 67 56 50 44 39 46 39 40 49 53 48 46 46 47 47 47 47 47 46 45 43 41 41 41 39 36 37 37
91 87 83 72 74 71 56 58 57 70 98 83 76 67 53 44 40 32 36 42 51 50 47 47 48 48 47 46 45 44 42 38 35 35 33 32 30 28
93 92 89 86 75 68 65 74 72 68 106 106 108 72 48 43 33 23 32 40 46 58 51 47 45 43 45 46 45 43 40 37 33 29 27 25 23 19
106 99 93 99 98 91 81 75 75 76 90 150 110 73 39 36 18 24 35 32 33 60 62 53 46 42 42 44 43 41 39 34 30 25 20 16 13 11
115 106 95 96 93 105 101 93 91 98 105 127 129 130 59 5 328 353 9 20 12 24 30 31 52 55 54 46 40 35 32 28 22 18 12 6 2 357
141 132 97 64 35 28 24 101 128 165 163 167 156 242 26 330 336 329 334 330 354 359 341 349 356 5 19 39 40 26 17 15 11 5 0 355 350 346
162 152 138 136 111 99 50 25 344 267 243 232 237 270 319 331 328 311 315 311 321 350 322 324 326 332 346 356 16 6 355 353 350 347 343 341 338 334
190 179 166 149 177 155 150 177 179 330 301 283 273 287 292 310 296 300 309 312 312 324 314 306 308 307 314 328 326 317 322 328 329 327 325 324 324 321
207 206 197 191 185 209 214 211 212 213 249 259 274 290 299 297 289 294 298 293 288 287 296 297 303 302 301 294 270 279 290 298 305 308 310 311 311 309
218 222 224 222 137 220 235 231 235 242 226 251 304 303 318 298 283 273 277 282 288 289 290 291 300 301 291 278 269 255 265 275 285 290 295 300 302 301
225 225 218 239 178 211 234 240 247 252 254 236 238 241 249 244 241 257 272 279 287 289 290 288 294 302 294 277 284 288 283 278 276 276 279 284 294 302
230 230 220 192 215 226 247 252 262 269 260 260 262 261 258 258 251 252 262 270 278 281 293 290 290 290 287 291 291 287 291 299 297 290 281 280 284 287
240 240 225 185 211 225 234 246 255 255 257 258 259 260 262 264 263 262 262 261 265 273 281 279 279 284 287 289 291 293 293 294 294 294 298 297 288 277
246 248 231 197 213 225 227 231 235 245 252 256 259 262 265 268 269 266 266 264 266 267 268 267 268 274 275 280 286 291 295 294 289 293 298 298 298 298
246 231 214 217 229 245 234 228 237 244 249 255 262 266 267 264 261 262 264 265 266 266 259 259 262 267 271 275 279 284 288 290 292 294 296 295 294 292
229 233 234 232 233 236 240 240 240 241 243 251 257 261 262 261 261 260 261 266 268 273 274 266 260 259 262 270 274 276 282 285 288 293 294 292 291 291
219 234 237 238 240 242 242 243 242 244 246 249 252 255 257 259 261 260 259 262 268 272 276 277 275 274 272 267 248 267 277 283 287 289 288 290 291 291
224 238 242 243 245 246 247 248 249 249 249 250 252 255 257 259 261 262 262 263 267 271 274 275 274 274 278 282 277 245 271 283 287 288 288 287 289 292
234 240 243 245 247 248 249 250 252 253 251 252 254 256 257 259 260 261 262 265 269 273 273 270 268 268 272 281 286 285 265 273 283 286 288 289 288 289
237 242 246 248 249 250 251 251 252 254 254 253 255 256 257 258 260 262 265 266 266 269 270 271 272 266 271 276 277 278 279 266 265 276 287 290 292 293
247 248 250 252 253 253 253 252 253 254 255 254 256 256 256 257 260 263 265 266 265 265 270 274 275 272 270 270 274 281 287 288 278 267 263 266 279 286
252 254 255 255 254 255 255 254 254 256 256 256 257 257 258 259 261 262 263 264 265 266 269 273 274 273 272 272 277 282 287 291 291 289 283 272 265 267
Height
1577 1577 1577 1577 1577 1577 1577 1578 1579 1578 1578 1577 1575 1574 1572 1571 1569 1568 1566 1564 1562 1561 1559 1557 1556 1555 1553 1551 1549 1548 1547 1545 1544 1544 1543 1542 1542 1542
1578 1578 1578 1578 1577 1577 1577 1577 1577 1578 1578 1577 1576 1574 1573 1572 1570 1569 1567 1565 1564 1562 1560 1558 1557 1555 1554 1552 1551 1549 1548 1547 1546 1544 1544 1543 1542 1541
1579 1579 1579 1578 1578 1578 1577 1577 1577 1578 1577 1577 1576 1575 1573 1572 1571 1569 1568 1566 1565 1563 1561 1559 1558 1556 1554 1553 1551 1550 1548 1547 1546 1545 1544 1543 1541 1540
1580 1580 1579 1579 1578 1578 1578 1578 1577 1577 1578 1577 1576 1575 1574 1572 1571 1569 1568 1567 1565 1563 1561 1560 1558 1556 1554 1553 1551 1550 1548 1547 1546 1544 1543 1542 1540 1540
1580 1580 1580 1580 1579 1579 1578 1578 1578 1577 1577 1577 1576 1574 1574 1572 1571 1569 1568 1566 1565 1563 1561 1560 1558 1556 1554 1553 1551 1549 1548 1546 1545 1543 1542 1541 1539 1538
1580 1580 1580 1580 1580 1579 1579 1578 1578 1577 1577 1577 1576 1575 1573 1572 1571 1570 1568 1567 1565 1563 1561 1560 1558 1556 1554 1552 1550 1549 1547 1545 1544 1542 1541 1539 1537 1536
1580 1580 1580 1579 1579 1578 1578 1578 1577 1577 1577 1576 1576 1575 1574 1572 1571 1569 1568 1566 1564 1563 1561 1559 1557 1556 1554 1551 1549 1547 1545 1543 1542 1540 1538 1537 1535 1533
1580 1579 1579 1578 1578 1577 1577 1576 1576 1576 1576 1576 1575 1574 1573 1572 1570 1568 1567 1566 1565 1563 1560 1558 1557 1554 1553 1550 1548 1546 1543 1541 1539 1538 1536 1534 1532 1529
1579 1579 1578 1578 1577 1577 1576 1575 1575 1574 1574 1574 1574 1573 1572 1570 1569 1567 1566 1565 1563 1561 1559 1557 1555 1553 1551 1548 1546 1544 1541 1539 1537 1535 1533 1530 1528 1525
1577 1577 1577 1577 1576 1575 1575 1574 1574 1573 1572 1572 1572 1571 1570 1568 1567 1566 1564 1562 1560 1559 1557 1555 1553 1551 1548 1546 1543 1541 1538 1536 1534 1531 1529 1526 1523 1521
1576 1575 1575 1575 1574 1573 1573 1572 1572 1571 1570 1569 1568 1568 1566 1565 1564 1563 1561 1560 1559 1557 1555 1553 1550 1547 1545 1543 1540 1537 1535 1532 1530 1527 1524 1522 1519 1516
1573 1573 1573 1572 1572 1571 1571 1570 1570 1569 1568 1567 1566 1565 1564 1563 1561 1560 1559 1558 1556 1555 1552 1550 1547 1545 1542 1539 1537 1534 1531 1528 1525 1523 1520 1517 1514 1511
1571 1570 1570 1569 1569 1568 1568 1567 1567 1566 1565 1564 1563 1562 1561 1560 1558 1557 1555 1554 1553 1551 1549 1547 1544 1542 1540 1536 1533 1530 1528 1524 1521 1518 1515 1512 1509 1506
1567 1567 1567 1566 1566 1565 1564 1564 1563 1563 1562 1561 1560 1558 1557 1556 1555 1553 1551 1550 1548 1546 1545 1543 1540 1538 1535 1532 1529 1526 1523 1520 1517 1513 1510 1507 1504 1500
1563 1563 1563 1562 1562 1561 1560 1560 1559 1558 1558 1557 1556 1555 1554 1552 1550 1548 1546 1545 1543 1541 1539 1537 1535 1533 1530 1527 1524 1521 1518 1515 1512 1508 1505 1501 1498 1495
1559 1558 1558 1558 1557 1556 1556 1555 1555 1554 1553 1552 1551 1550 1549 1547 1545 1543 1541 1540 1537 1535 1534 1532 1530 1527 1524 1522 1519 1515 1513 1510 1506 1503 1499 1495 1492 1489
1554 1553 1553 1552 1552 1551 1551 1550 1549 1549 1548 1547 1546 1544 1543 1541 1540 1538 1536 1534 1533 1530 1528 1526 1524 1521 1518 1516 1512 1509 1507 1503 1500 1497 1493 1488 1485 1482
1549 1548 1547 1547 1546 1545 1545 1544 1544 1543 1542 1541 1540 1538 1537 1536 1534 1533 1531 1529 1527 1524 1522 1521 1518 1515 1512 1509 1507 1503 1500 1497 1494 1491 1487 1482 1477 1475
1542 1541 1541 1541 1540 1539 1539 1538 1537 1537 1536 1535 1533 1532 1531 1530 1528 1526 1525 1523 1520 1518 1516 1514 1512 1509 1506 1502 1500 1498 1494 1490 1487 1484 1480 1476 1471 1467
1535 1535 1534 1534 1533 1533 1532 1531 1530 1530 1529 1528 1526 1525 1524 1523 1521 1519 1518 1516 1514 1511 1509 1507 1505 1502 1499 1496 1492 1490 1488 1484 1480 1476 1472 1468 1463 1459
1528 1528 1527 1527 1526 1526 1525 1524 1523 1522 1521 1520 1519 1518 1517 1515 1513 1512 1510 1508 1506 1504 1501 1499 1497 1495 1492 1488 1484 1481 1480 1478 1474 1470 1465 1461 1455 1450
1522 1521 1520 1520 1519 1518 1517 1516 1515 1514 1513 1512 1511 1510 1509 1507 1506 1504 1503 1501 1499 1496 1494 1492 1490 1488 1485 1481 1477 1473 1471 1469 1466 1462 1458 1454 1450 1443
1515 1514 1513 1512 1512 1511 1510 1509 1508 1506 1505 1504 1503 1502 1500 1499 1497 1496 1494 1492 1490 1488 1486 1484 1482 1480 1477 1474 1470 1466 1463 1460 1456 1452 1449 1446 1442 1437